Weather in Krasnaya Lyunda

Russia / Mari El Republic     56°31′26″N   46°02′17″E
temp.,
°C
wind,
m/s
gust,
m/s
humid.,
%
clouds,
%
prec.,
mm/h
press.,
hPa
HPBL,
m
3 march, wed
wed300:00−2wnw499099 0.1 1001682
03:00−4nw5119399 0.4 1002683
06:00−6nw51293100 0.1 1003645
09:00−6nw51190100 0.4 1005656
12:00−4nw5890100 0.1 1006738
15:00−4wnw5889100 0.2 1007862
18:00−6wnw4989100 0.1 1006530
21:00−8wsw3109392 0.1 1005261
4 march, thu
thu400:00−4wsw41293100 0.2 1002657
03:00−3wsw41193100 0.3 1000693
06:00−3wsw51293100 0.2 996780
09:00−2wsw61195100 0.8 994763
12:00+1w61386100 0.6 9921535
15:00−1wnw7138179 0.6 9931516
18:00−4w5138668 0.1 996618
21:00−6w399454 0.1 998324
5 march, fri
fri500:00−7nw249597 0.2 999101
03:00−12nnw239498 0.2 100152
06:00−15nnw239348 0.0 100323
09:00−13nnw249524 0.0 1004185
12:00−7nw24842 0.0 1006464
15:00−6wnw358311 0.0 1007798
18:00−10w239190 0.0 100821
21:00−12wsw239346 0.0 101036
6 march, sat
sat600:00−11sw2596100 0.1 1011126
03:00−13sw239694 0.1 101131
06:00−12sw129793 0.1 101027
09:00−9wnw129494 0.4 1011230
12:00−7nnw3491100 0.2 1011574
15:00−8nw4588100 0.3 1011770
18:00−12nw3893100 0.1 1011283
21:00−17wnw239576 0.1 101236
7 march, sun
sun700:00−18w239769 0.0 101273
03:00−19sw239968 0.0 101165
06:00−18ssw369993 0.0 1009118
09:00−13ssw5109194 0.1 1007373
12:00−9ssw71393100 0.3 1003871
15:00−7ssw61393100 1.3 9991168
18:00−6ssw61294100 1.1 9951026
21:00−5ssw61294100 1.9 992871